User: anonymous   Login
Location: Fort Wayne
(41.1310°N, 85.1290°W)
Time: 19:54:57
(UTC-04:00)
Language:

Gbstr 26 Del rocket - Orbit

View from above orbital plane
View from above orbital plane
View from above satellite
View from above satellite

Ground track
Ground track

The orbit data is extracted from the following two-line orbital elements,

1 25876U 99041E   15147.14677504  .00000612  00000-0  14624-3 0  9992
2 25876 051.7663 042.4763 0535899 357.3509 002.4610 14.03272716808984
Epoch (UTC): 27 May 2015 03:31:21
Eccentricity: 0.0535899
inclination: 51.7663°
perigee height: 493 km
apogee height: 1271 km
right ascension of ascending node: 42.4763°
argument of perigee: 357.3509°
revolutions per day: 14.03272716
mean anomaly at epoch: 2.4610°
orbit number at epoch: 80898

The dashed part of the orbit path shows where the satellite is in the earth's shadow,  

DLR